Simultaneous Nadir Overpasses (SNOs) Predictions

Prediction of SNOs between NOAA-19 and NPP Satellite Orbit:

Table of predicted SNOs for the next 14.0 days since TLE Epoch: 9/17/2022
Index Date (NOAA-19) Time (NOAA-19) Lat,Lon (NOAA-19) SZA (NOAA-19 ) Date (NPP) Time (NPP) Lat,Lon (NPP) SZA (NPP ) Distance(km) Time Diff (sec)
1 09/21/2022 06:34:19 76.07, 61.88 76.00 09/21/2022 06:35:27 76.13, 64.27 75.87 64.18 68
2 09/21/2022 07:25:11 -76.45,-129.43 103.74 09/21/2022 07:26:18 -76.44,-129.50 103.76 2.19 67
3 09/21/2022 08:16:10 76.45, 37.85 76.28 09/21/2022 08:17:04 76.45, 37.74 76.28 2.96 54
4 09/21/2022 09:07:11 -76.43,-154.97 103.72 09/21/2022 09:07:48 -76.44,-154.89 103.73 2.20 37
5 09/21/2022 09:58:10 76.44, 12.31 76.30 09/21/2022 09:58:34 76.46, 12.35 76.31 1.95 24
6 09/21/2022 10:49:10 -76.47, 179.66 103.67 09/21/2022 10:49:18 -76.44, 179.72 103.70 3.13 8
7 09/21/2022 11:40:09 76.48, -13.05 76.35 09/21/2022 11:40:04 76.46, -13.04 76.34 1.57 5
8 09/21/2022 12:31:09 -76.50, 154.29 103.62 09/21/2022 12:30:49 -76.49, 154.17 103.62 3.28 20
9 09/21/2022 13:22:09 76.46, -38.59 76.37 09/21/2022 13:21:34 76.46, -38.43 76.37 4.30 35
10 09/21/2022 14:13:09 -76.49, 128.75 103.60 09/21/2022 14:12:19 -76.49, 128.78 103.58 1.17 50
11 09/21/2022 15:04:08 76.50, -63.96 76.42 09/21/2022 15:03:05 76.51, -63.98 76.46 1.94 63
12 09/21/2022 15:55:05 -76.65, 103.91 103.46 09/21/2022 15:53:53 -76.68, 102.72 103.34 30.74 72



Historial Predications of SNOs between NOAA-19 and NPP
